Regional Weather Roundup
Issued by NWS

Home | Current Version | Previous Version | Text Only | Print | Product List | Glossary On
Versions: 1 2 3 4 5 6 7 8 9 10 11 12 13 14 15 16 17 18 19 20 21 22 23 24 25 26 27 28 29 30 31 32 33 34 35 36 37 38 39 40 41 42 43 44 45 46 47 48 49 50
000
ASUS43 KBIS 200110
RWRND

NORTH DAKOTA REGIONAL WEATHER ROUNDUP
NATIONAL WEATHER SERVICE BISMARCK ND
700 PM CST THU JAN 19 2017

NOTE: "FAIR" INDICATES FEW OR NO CLOUDS BELOW 12,000 FEET WITH NO
SIGNIFICANT WEATHER AND/OR OBSTRUCTIONS TO VISIBILITY.


NDZ001>003-009>011-017-200200-
NORTHWEST NORTH DAKOTA

CITY           SKY/WX    TMP DP  RH WIND       PRES   REMARKS
WILLISTON      FAIR      21  19  92 CALM      29.45R
MINOT          FAIR      28  25  88 SE5       29.44R
MINOT AFB      CLOUDY    25  22  91 SE3       29.43R
$$

NDZ018>021-031>035-040>046-200200-
SOUTHWEST NORTH DAKOTA

CITY           SKY/WX    TMP DP  RH WIND       PRES   REMARKS
BISMARCK       FAIR      15  12  88 SE5       29.50R WCI   8
DICKINSON      FAIR      26  20  77 SW6       29.42R WCI  19
GARRISON         N/A     20  16  84 CALM      29.45R
HETTINGER ARPT CLOUDY    20  18  92 NW7       29.46S WCI  11
$$

NDZ004>008-012>016-024-026-027-054-200200-
NORTHEAST NORTH DAKOTA

CITY           SKY/WX    TMP DP  RH WIND       PRES   REMARKS
GRAND FORKS    FOG       33  31  92 S15       29.55S VSB 1/2
GRND FRKS AFB  CLOUDY    33  33  98 S16       29.54F FOG
DEVILS LAKE    FAIR      24  21  88 S12       29.50R WCI  13
$$

NDZ022-023-025-028>030-036>039-047>053-200200-
SOUTHEAST NORTH DAKOTA

CITY           SKY/WX    TMP DP  RH WIND       PRES   REMARKS
FARGO          FOG       36  35  96 S18       29.60R VSB 1/2
JAMESTOWN      FOG       30  30 100 S13       29.52S VSB 3/4 WCI  20
$$




USA.gov is the U.S. government's official web portal to all federal, state and local government web resources and services.